Time,TemperatureF,DewpointF,PressureIn,WindDirection,WindDirectionDegrees,WindSpeedMPH,WindSpeedGustMPH,Humidity,HourlyPrecipIn,Conditions,Clouds,dailyrainin,SoftwareType,DateUTC
2013-02-05 00:01:00,46.0,41.0,29.96,South,188,2.0,-999.0,83,-99.99,,,-99.99,,2013-02-05 08:01:00,
2013-02-05 00:11:00,46.0,41.0,29.96,South,188,2.0,-999.0,83,-99.99,,,-99.99,,2013-02-05 08:11:00,
2013-02-05 00:21:00,46.0,41.0,29.96,SW,234,2.0,-999.0,83,-99.99,,,-99.99,,2013-02-05 08:21:00,
2013-02-05 00:31:00,46.0,41.0,29.96,South,189,2.0,-999.0,81,-99.99,,,-99.99,,2013-02-05 08:31:00,
2013-02-05 00:41:00,46.0,41.0,29.96,South,189,2.0,-999.0,81,-99.99,,,-99.99,,2013-02-05 08:41:00,
2013-02-05 00:52:00,46.0,40.0,29.96,SSW,200,1.0,-999.0,80,-99.99,,,-99.99,,2013-02-05 08:52:00,
2013-02-05 01:02:00,46.0,40.0,29.96,SW,230,2.0,-999.0,79,-99.99,,,-99.99,,2013-02-05 09:02:00,
2013-02-05 01:11:00,47.0,40.0,29.96,SSW,207,3.0,-999.0,77,-99.99,,,-99.99,,2013-02-05 09:11:00,
2013-02-05 01:21:00,47.0,40.0,29.96,SSW,207,3.0,-999.0,77,-99.99,,,-99.99,,2013-02-05 09:21:00,
2013-02-05 01:31:00,47.0,40.0,29.96,SW,231,3.0,-999.0,77,-99.99,,,-99.99,,2013-02-05 09:31:00,
2013-02-05 01:41:00,47.0,40.0,29.96,SW,231,3.0,-999.0,77,-99.99,,,-99.99,,2013-02-05 09:41:00,
2013-02-05 01:52:00,47.0,40.0,29.96,South,186,4.0,-999.0,77,-99.99,,,-99.99,,2013-02-05 09:52:00,
2013-02-05 02:01:00,47.0,40.0,29.96,South,186,4.0,-999.0,77,-99.99,,,-99.99,,2013-02-05 10:01:00,
2013-02-05 02:11:00,47.0,41.0,29.96,SSE,163,3.0,-999.0,78,-99.99,,,-99.99,,2013-02-05 10:11:00,
2013-02-05 02:21:00,47.0,41.0,29.96,SSE,163,3.0,-999.0,78,-99.99,,,-99.99,,2013-02-05 10:21:00,
2013-02-05 02:31:00,47.0,41.0,29.96,SSE,167,2.0,-999.0,79,-99.99,,,-99.99,,2013-02-05 10:31:00,
2013-02-05 02:42:00,47.0,41.0,29.96,SSE,167,2.0,-999.0,79,-99.99,,,-99.99,,2013-02-05 10:42:00,
2013-02-05 02:52:00,46.0,40.0,29.96,SSE,167,4.0,-999.0,80,-99.99,,,-99.99,,2013-02-05 10:52:00,
2013-02-05 03:01:00,46.0,40.0,29.96,SSE,167,4.0,-999.0,80,-99.99,,,-99.99,,2013-02-05 11:01:00,
2013-02-05 03:11:00,46.0,40.0,29.96,SSE,167,4.0,-999.0,80,-99.99,,,-99.99,,2013-02-05 11:11:00,
2013-02-05 03:21:00,46.0,41.0,29.95,South,186,5.0,-999.0,81,-99.99,,,-99.99,,2013-02-05 11:21:00,
2013-02-05 03:31:00,46.0,41.0,29.94,SSE,149,2.0,-999.0,81,-99.99,,,-99.99,,2013-02-05 11:31:00,
2013-02-05 03:41:00,46.0,41.0,29.94,SSE,149,2.0,-999.0,81,-99.99,,,-99.99,,2013-02-05 11:41:00,
2013-02-05 03:52:00,46.0,41.0,29.93,ESE,121,0.0,-999.0,82,-99.99,,,-99.99,,2013-02-05 11:52:00,
2013-02-05 04:01:00,46.0,41.0,29.93,ESE,121,0.0,-999.0,82,-99.99,,,-99.99,,2013-02-05 12:01:00,
2013-02-05 04:12:00,46.0,41.0,29.93,ESE,121,0.0,-999.0,82,-99.99,,,-99.99,,2013-02-05 12:12:00,
2013-02-05 04:21:00,46.0,41.0,29.93,ESE,121,3.0,-999.0,82,-99.99,,,-99.99,,2013-02-05 12:21:00,
2013-02-05 04:31:00,46.0,41.0,29.93,ESE,121,3.0,-999.0,82,-99.99,,,-99.99,,2013-02-05 12:31:00,
2013-02-05 04:41:00,46.0,41.0,29.93,ESE,121,3.0,-999.0,82,-99.99,,,-99.99,,2013-02-05 12:41:00,
2013-02-05 04:52:00,45.0,40.0,29.93,SSW,198,1.0,-999.0,83,-99.99,,,-99.99,,2013-02-05 12:52:00,
2013-02-05 05:01:00,45.0,40.0,29.93,SSW,198,1.0,-999.0,83,-99.99,,,-99.99,,2013-02-05 13:01:00,
2013-02-05 05:11:00,45.0,40.0,29.93,SSW,198,1.0,-999.0,83,-99.99,,,-99.99,,2013-02-05 13:11:00,
2013-02-05 05:21:00,45.0,41.0,29.93,WSW,246,0.0,-999.0,86,-99.99,,,-99.99,,2013-02-05 13:21:00,
2013-02-05 05:31:00,45.0,41.0,29.93,WSW,246,0.0,-999.0,86,-99.99,,,-99.99,,2013-02-05 13:31:00,
2013-02-05 05:42:00,45.0,41.0,29.93,WSW,246,0.0,-999.0,86,-99.99,,,-99.99,,2013-02-05 13:42:00,
2013-02-05 05:52:00,45.0,42.0,29.93,SW,230,0.0,-999.0,89,-99.99,,,-99.99,,2013-02-05 13:52:00,
2013-02-05 06:01:00,45.0,42.0,29.92,SSE,165,0.0,-999.0,89,-99.99,,,-99.99,,2013-02-05 14:01:00,
2013-02-05 06:12:00,45.0,42.0,29.92,SSE,165,0.0,-999.0,89,-99.99,,,-99.99,,2013-02-05 14:12:00,
2013-02-05 06:21:00,44.0,42.0,29.92,SW,229,2.0,-999.0,91,-99.99,,,-99.99,,2013-02-05 14:21:00,
2013-02-05 06:31:00,44.0,42.0,29.92,SSE,165,2.0,-999.0,91,-99.99,,,-99.99,,2013-02-05 14:31:00,
2013-02-05 06:41:00,44.0,42.0,29.92,SSE,165,2.0,-999.0,91,-99.99,,,-99.99,,2013-02-05 14:41:00,
2013-02-05 06:52:00,44.0,42.0,29.92,SSE,165,2.0,-999.0,91,-99.99,,,-99.99,,2013-02-05 14:52:00,
2013-02-05 07:01:00,44.0,42.0,29.92,SSE,164,2.0,-999.0,92,-99.99,,,-99.99,,2013-02-05 15:01:00,
2013-02-05 07:11:00,44.0,42.0,29.92,SSE,164,2.0,-999.0,92,-99.99,,,-99.99,,2013-02-05 15:11:00,
2013-02-05 07:21:00,44.0,42.0,29.92,SW,221,1.0,-999.0,92,-99.99,,,-99.99,,2013-02-05 15:21:00,
2013-02-05 07:32:00,44.0,42.0,29.92,SSW,196,1.0,-999.0,92,-99.99,,,-99.99,,2013-02-05 15:32:00,
2013-02-05 07:41:00,44.0,42.0,29.92,SSW,196,1.0,-999.0,92,-99.99,,,-99.99,,2013-02-05 15:41:00,
2013-02-05 07:52:00,44.0,42.0,29.92,SSW,211,2.0,-999.0,93,-99.99,,,-99.99,,2013-02-05 15:52:00,
2013-02-05 08:01:00,44.0,42.0,29.92,SSE,165,1.0,-999.0,93,-99.99,,,-99.99,,2013-02-05 16:01:00,
2013-02-05 08:11:00,44.0,42.0,29.92,SSE,165,1.0,-999.0,93,-99.99,,,-99.99,,2013-02-05 16:11:00,
2013-02-05 08:22:00,44.0,42.0,29.93,South,179,4.0,-999.0,92,-99.99,,,-99.99,,2013-02-05 16:22:00,
2013-02-05 08:32:00,45.0,43.0,29.93,South,169,5.0,-999.0,92,-99.99,,,-99.99,,2013-02-05 16:32:00,
2013-02-05 08:41:00,45.0,43.0,29.93,South,169,5.0,-999.0,92,-99.99,,,-99.99,,2013-02-05 16:41:00,
2013-02-05 08:51:00,45.0,43.0,29.93,South,173,7.0,-999.0,92,-99.99,,,-99.99,,2013-02-05 16:51:00,
2013-02-05 09:01:00,45.0,43.0,29.93,South,173,7.0,-999.0,92,-99.99,,,-99.99,,2013-02-05 17:01:00,
2013-02-05 09:11:00,45.0,43.0,29.93,South,173,7.0,-999.0,92,-99.99,,,-99.99,,2013-02-05 17:11:00,
2013-02-05 09:21:00,45.0,43.0,29.94,South,189,5.0,-999.0,92,-99.99,,,-99.99,,2013-02-05 17:21:00,
2013-02-05 09:32:00,46.0,44.0,29.94,SSE,149,4.0,-999.0,92,-99.99,,,-99.99,,2013-02-05 17:32:00,
2013-02-05 09:42:00,46.0,44.0,29.94,SSE,149,4.0,-999.0,92,-99.99,,,-99.99,,2013-02-05 17:42:00,
2013-02-05 09:52:00,46.0,44.0,29.95,SSW,193,3.0,-999.0,92,-99.99,,,-99.99,,2013-02-05 17:52:00,
2013-02-05 10:01:00,46.0,44.0,29.95,SSW,193,3.0,-999.0,92,-99.99,,,-99.99,,2013-02-05 18:01:00,
2013-02-05 10:11:00,46.0,44.0,29.95,SSW,193,3.0,-999.0,92,-99.99,,,-99.99,,2013-02-05 18:11:00,
2013-02-05 10:21:00,46.0,44.0,29.95,South,181,3.0,-999.0,94,-99.99,,,-99.99,,2013-02-05 18:21:00,
2013-02-05 10:31:00,47.0,46.0,29.95,SSE,148,4.0,-999.0,95,-99.99,,,-99.99,,2013-02-05 18:31:00,
2013-02-05 10:42:00,47.0,46.0,29.95,SSE,148,4.0,-999.0,95,-99.99,,,-99.99,,2013-02-05 18:42:00,
2013-02-05 10:51:00,49.0,46.0,29.95,SSE,156,5.0,-999.0,91,-99.99,,,-99.99,,2013-02-05 18:51:00,
2013-02-05 11:02:00,50.0,47.0,29.95,SE,146,7.0,-999.0,88,-99.99,,,-99.99,,2013-02-05 19:02:00,
2013-02-05 11:11:00,50.0,47.0,29.95,SE,146,7.0,-999.0,88,-99.99,,,-99.99,,2013-02-05 19:11:00,
2013-02-05 11:21:00,51.0,46.0,29.95,South,181,6.0,-999.0,84,-99.99,,,-99.99,,2013-02-05 19:21:00,
2013-02-05 11:31:00,51.0,47.0,29.96,South,178,5.0,-999.0,85,-99.99,,,-99.99,,2013-02-05 19:31:00,
2013-02-05 11:42:00,51.0,47.0,29.96,South,178,5.0,-999.0,85,-99.99,,,-99.99,,2013-02-05 19:42:00,
2013-02-05 11:52:00,50.0,46.0,29.95,SW,224,5.0,-999.0,86,-99.99,,,-99.99,,2013-02-05 19:52:00,
2013-02-05 12:01:00,50.0,46.0,29.95,SW,224,5.0,-999.0,86,-99.99,,,-99.99,,2013-02-05 20:01:00,
2013-02-05 12:11:00,50.0,46.0,29.95,SW,224,5.0,-999.0,86,-99.99,,,-99.99,,2013-02-05 20:11:00,
2013-02-05 12:21:00,50.0,47.0,29.94,SSW,209,2.0,-999.0,88,-99.99,,,-99.99,,2013-02-05 20:21:00,
2013-02-05 12:32:00,51.0,48.0,29.94,WSW,237,1.0,-999.0,89,-99.99,,,-99.99,,2013-02-05 20:32:00,
2013-02-05 12:42:00,51.0,48.0,29.94,WSW,237,1.0,-999.0,89,-99.99,,,-99.99,,2013-02-05 20:42:00,
2013-02-05 12:52:00,50.0,47.0,29.95,SW,223,1.0,-999.0,88,-99.99,,,-99.99,,2013-02-05 20:52:00,
2013-02-05 13:01:00,50.0,47.0,29.95,SW,223,1.0,-999.0,88,-99.99,,,-99.99,,2013-02-05 21:01:00,
2013-02-05 13:11:00,50.0,47.0,29.95,SW,223,1.0,-999.0,88,-99.99,,,-99.99,,2013-02-05 21:11:00,
2013-02-05 13:21:00,50.0,47.0,29.95,WSW,246,1.0,-999.0,90,-99.99,,,-99.99,,2013-02-05 21:21:00,
2013-02-05 13:31:00,50.0,47.0,29.94,WNW,282,0.0,-999.0,90,-99.99,,,-99.99,,2013-02-05 21:31:00,
2013-02-05 13:42:00,50.0,47.0,29.94,WNW,282,0.0,-999.0,90,-99.99,,,-99.99,,2013-02-05 21:42:00,
2013-02-05 13:52:00,51.0,47.0,29.93,East,98,1.0,-999.0,86,-99.99,,,-99.99,,2013-02-05 21:52:00,
2013-02-05 14:01:00,53.0,47.0,29.94,SW,215,4.0,-999.0,80,-99.99,,,-99.99,,2013-02-05 22:01:00,
2013-02-05 14:11:00,53.0,47.0,29.94,SW,215,4.0,-999.0,80,-99.99,,,-99.99,,2013-02-05 22:11:00,
2013-02-05 14:21:00,53.0,46.0,29.93,SSW,210,3.0,-999.0,76,-99.99,,,-99.99,,2013-02-05 22:21:00,
2013-02-05 14:31:00,53.0,46.0,29.93,SSW,210,3.0,-999.0,76,-99.99,,,-99.99,,2013-02-05 22:31:00,
2013-02-05 14:41:00,53.0,46.0,29.93,SSW,210,3.0,-999.0,76,-99.99,,,-99.99,,2013-02-05 22:41:00,
2013-02-05 14:52:00,53.0,46.0,29.93,SSW,210,3.0,-999.0,76,-99.99,,,-99.99,,2013-02-05 22:52:00,
2013-02-05 15:01:00,53.0,44.0,29.93,SW,232,6.0,-999.0,72,-99.99,,,-99.99,,2013-02-05 23:01:00,
2013-02-05 15:11:00,53.0,44.0,29.93,SW,232,6.0,-999.0,72,-99.99,,,-99.99,,2013-02-05 23:11:00,
2013-02-05 15:21:00,52.0,44.0,29.94,SSW,200,5.0,-999.0,73,-99.99,,,-99.99,,2013-02-05 23:21:00,
2013-02-05 15:32:00,52.0,44.0,29.94,SSW,205,5.0,-999.0,73,-99.99,,,-99.99,,2013-02-05 23:32:00,
2013-02-05 15:41:00,52.0,44.0,29.94,SSW,205,5.0,-999.0,73,-99.99,,,-99.99,,2013-02-05 23:41:00,
2013-02-05 15:52:00,51.0,44.0,29.94,South,184,4.0,-999.0,76,-99.99,,,-99.99,,2013-02-05 23:52:00,
2013-02-05 16:01:00,51.0,44.0,29.94,South,173,4.0,-999.0,76,-99.99,,,-99.99,,2013-02-06 00:01:00,
2013-02-05 16:11:00,51.0,44.0,29.94,South,173,4.0,-999.0,76,-99.99,,,-99.99,,2013-02-06 00:11:00,
2013-02-05 16:21:00,51.0,44.0,29.94,SSW,211,7.0,-999.0,76,-99.99,,,-99.99,,2013-02-06 00:21:00,
2013-02-05 16:31:00,50.0,43.0,29.95,WSW,240,5.0,-999.0,76,-99.99,,,-99.99,,2013-02-06 00:31:00,
2013-02-05 16:41:00,50.0,43.0,29.95,WSW,240,5.0,-999.0,76,-99.99,,,-99.99,,2013-02-06 00:41:00,
2013-02-05 16:52:00,50.0,43.0,29.95,West,274,5.0,-999.0,76,-99.99,,,-99.99,,2013-02-06 00:52:00,
2013-02-05 17:01:00,48.0,43.0,29.97,SSW,205,4.0,-999.0,84,-99.99,,,-99.99,,2013-02-06 01:01:00,
2013-02-05 17:11:00,48.0,43.0,29.97,SSW,205,4.0,-999.0,84,-99.99,,,-99.99,,2013-02-06 01:11:00,
2013-02-05 17:21:00,48.0,43.0,29.97,SSW,205,4.0,-999.0,84,-99.99,,,-99.99,,2013-02-06 01:21:00,
2013-02-05 17:32:00,46.0,42.0,29.97,West,271,2.0,-999.0,87,-99.99,,,-99.99,,2013-02-06 01:32:00,
2013-02-05 17:41:00,46.0,42.0,29.97,West,271,2.0,-999.0,87,-99.99,,,-99.99,,2013-02-06 01:41:00,
2013-02-05 17:52:00,46.0,43.0,29.97,SSW,196,0.0,-999.0,88,-99.99,,,-99.99,,2013-02-06 01:52:00,
2013-02-05 18:01:00,45.0,42.0,29.98,SSW,196,0.0,-999.0,89,-99.99,,,-99.99,,2013-02-06 02:01:00,
2013-02-05 18:11:00,45.0,42.0,29.98,SSW,196,0.0,-999.0,89,-99.99,,,-99.99,,2013-02-06 02:11:00,
2013-02-05 18:21:00,45.0,43.0,29.98,SSE,165,1.0,-999.0,91,-99.99,,,-99.99,,2013-02-06 02:21:00,
2013-02-05 18:31:00,45.0,42.0,29.98,SSE,165,2.0,-999.0,90,-99.99,,,-99.99,,2013-02-06 02:31:00,
2013-02-05 18:41:00,45.0,42.0,29.98,SSE,165,2.0,-999.0,90,-99.99,,,-99.99,,2013-02-06 02:41:00,
2013-02-05 18:52:00,45.0,42.0,29.98,South,174,3.0,-999.0,88,-99.99,,,-99.99,,2013-02-06 02:52:00,
2013-02-05 19:02:00,45.0,42.0,29.98,South,174,3.0,-999.0,88,-99.99,,,-99.99,,2013-02-06 03:02:00,
2013-02-05 19:11:00,45.0,42.0,29.98,South,174,3.0,-999.0,88,-99.99,,,-99.99,,2013-02-06 03:11:00,
2013-02-05 19:21:00,44.0,41.0,29.99,SSE,165,2.0,-999.0,89,-99.99,,,-99.99,,2013-02-06 03:21:00,
2013-02-05 19:31:00,44.0,41.0,29.99,SSE,165,2.0,-999.0,89,-99.99,,,-99.99,,2013-02-06 03:31:00,
2013-02-05 19:42:00,44.0,41.0,29.99,SSE,165,2.0,-999.0,89,-99.99,,,-99.99,,2013-02-06 03:42:00,
2013-02-05 19:52:00,44.0,42.0,30.00,South,172,2.0,-999.0,91,-99.99,,,-99.99,,2013-02-06 03:52:00,
2013-02-05 20:01:00,44.0,42.0,30.01,South,184,3.0,-999.0,91,-99.99,,,-99.99,,2013-02-06 04:01:00,
2013-02-05 20:11:00,44.0,42.0,30.01,South,184,3.0,-999.0,91,-99.99,,,-99.99,,2013-02-06 04:11:00,
2013-02-05 20:21:00,44.0,41.0,30.01,SSW,205,3.0,-999.0,90,-99.99,,,-99.99,,2013-02-06 04:21:00,
2013-02-05 20:31:00,44.0,41.0,30.01,SSW,205,3.0,-999.0,90,-99.99,,,-99.99,,2013-02-06 04:31:00,
2013-02-05 20:41:00,44.0,41.0,30.01,SSW,205,3.0,-999.0,90,-99.99,,,-99.99,,2013-02-06 04:41:00,
2013-02-05 20:51:00,43.0,41.0,30.02,SSE,157,2.0,-999.0,91,-99.99,,,-99.99,,2013-02-06 04:51:00,
2013-02-05 21:01:00,43.0,41.0,30.02,SSE,164,2.0,-999.0,92,-99.99,,,-99.99,,2013-02-06 05:01:00,
2013-02-05 21:12:00,43.0,41.0,30.02,SSE,164,2.0,-999.0,92,-99.99,,,-99.99,,2013-02-06 05:12:00,
2013-02-05 21:22:00,44.0,42.0,30.02,ESE,117,3.0,-999.0,93,-99.99,,,-99.99,,2013-02-06 05:22:00,
2013-02-05 21:31:00,44.0,42.0,30.02,SSE,167,3.0,-999.0,92,-99.99,,,-99.99,,2013-02-06 05:31:00,
2013-02-05 21:41:00,44.0,42.0,30.02,SSE,167,3.0,-999.0,92,-99.99,,,-99.99,,2013-02-06 05:41:00,
2013-02-05 21:53:00,44.0,42.0,30.03,SSW,196,7.0,-999.0,92,-99.99,,,-99.99,,2013-02-06 05:53:00,
2013-02-05 22:01:00,44.0,42.0,30.03,SSW,196,7.0,-999.0,92,-99.99,,,-99.99,,2013-02-06 06:01:00,
2013-02-05 22:11:00,44.0,42.0,30.03,SSW,196,7.0,-999.0,92,-99.99,,,-99.99,,2013-02-06 06:11:00,
2013-02-05 22:21:00,44.0,42.0,30.03,SSE,154,7.0,-999.0,92,-99.99,,,-99.99,,2013-02-06 06:21:00,
2013-02-05 22:31:00,44.0,42.0,30.03,SSE,154,7.0,-999.0,92,-99.99,,,-99.99,,2013-02-06 06:31:00,
2013-02-05 22:41:00,44.0,42.0,30.03,SSE,154,7.0,-999.0,92,-99.99,,,-99.99,,2013-02-06 06:41:00,
2013-02-05 22:51:00,44.0,42.0,30.03,SE,131,6.0,-999.0,91,-99.99,,,-99.99,,2013-02-06 06:51:00,
2013-02-05 23:01:00,44.0,42.0,30.03,SE,131,6.0,-999.0,91,-99.99,,,-99.99,,2013-02-06 07:01:00,
2013-02-05 23:11:00,44.0,42.0,30.03,SE,131,6.0,-999.0,91,-99.99,,,-99.99,,2013-02-06 07:11:00,
2013-02-05 23:21:00,44.0,41.0,30.04,South,182,5.0,-999.0,89,-99.99,,,-99.99,,2013-02-06 07:21:00,
2013-02-05 23:32:00,44.0,41.0,30.04,South,182,5.0,-999.0,89,-99.99,,,-99.99,,2013-02-06 07:32:00,
2013-02-05 23:42:00,44.0,41.0,30.04,South,182,5.0,-999.0,89,-99.99,,,-99.99,,2013-02-06 07:42:00,
2013-02-05 23:52:00,43.0,40.0,30.04,SSE,147,8.0,-999.0,90,-99.99,,,-99.99,,2013-02-06 07:52:00,